Mountain Home, AR

4:19 AM CDT on October 21, 2019 (GMT -0500)
Baxter County Regional

Weather History for KBPK - August, 2019

Change the Weather History Date:

Monday, August 5, 2019

  Actual Average (WUND) Record (WUND)
Temperature  
Mean Temperature 79 °F -  
Max Temperature 90 °F - - (-1)
Min Temperature 70 °F - - (-1)
Cooling Degree Days 14    
Growing Degree Days 29 (Base 50)    
Moisture  
Dew Point 72 °F    
Average Humidity 86    
Maximum Humidity 97    
Minimum Humidity 57    
Precipitation  
Precipitation 0.32 in - - ()
Sea Level Pressure  
Sea Level Pressure 29.97 in    
Wind  
Wind Speed 3 mph (East)    
Max Wind Speed 7 mph    
Max Gust Speed 17 mph    
Visibility 9 miles    
Events Rain , Thunderstorm    
Averages and records for this station are not official NWS values.
T = Trace of Precipitation, MM = Missing Value Source: NWS Daily Summary

Daily Weather History Graph

Daily Weather History Graph

Search for Another Location

Airport or City:

Astronomy

Aug. 05, 2019 Rise Set
Actual Time 6:19 AM CDT 8:11 PM CDT
Civil Twilight 5:51 AM CDT 8:39 PM CDT
Nautical Twilight 5:17 AM CDT 9:13 PM CDT
Astronomical Twilight 4:40 AM CDT 9:50 PM CDT
Moon 11:27 AM CDT (8/5) 11:33 PM CDT (8/5)
Length of Visible Light 14h 48m
Length of Day
13h 52m
Waxing Crescent, 28% of the Moon is Illuminated
Aug 5
Waxing Crescent
Aug 7
First Quarter
Aug 15
Full
Aug 23
Last Quarter
Aug 30
New

Hourly Weather History & Observations

Time (CDT) Temp. Heat Index Dew Point Humidity Pressure Visibility Wind Dir Wind Speed Gust Speed Precip Events Conditions
12:53 AM 73.9 °F - 71.1 °F 91% 29.99 in 10.0 mi Calm Calm - N/A   Mostly Cloudy
1:53 AM 73.9 °F - 71.1 °F 91% 29.97 in 10.0 mi East 3.5 mph - N/A   Mostly Cloudy
3:53 AM 72.0 °F - 70.0 °F 93% 29.97 in 10.0 mi Calm Calm - N/A   Clear
4:53 AM 71.1 °F - 70.0 °F 96% 29.97 in 9.0 mi Calm Calm - N/A   Clear
5:53 AM 71.1 °F - 70.0 °F 96% 29.96 in 9.0 mi East 4.6 mph - N/A   Clear
6:53 AM 70.0 °F - 69.1 °F 97% 29.99 in 6.0 mi Calm Calm - N/A   Clear
7:53 AM 73.9 °F - 71.1 °F 91% 29.99 in 8.0 mi East 3.5 mph - N/A   Partly Cloudy
8:53 AM 77.0 °F - 72.0 °F 84% 30.01 in 10.0 mi Calm Calm - N/A   Clear
9:53 AM 80.1 °F 84.2 °F 73.0 °F 79% 30.01 in 10.0 mi South 3.5 mph - N/A   Clear
10:53 AM 82.9 °F 88.0 °F 72.0 °F 69% 30.01 in 10.0 mi Variable 4.6 mph - N/A   Partly Cloudy
11:53 AM 84.9 °F 91.4 °F 73.0 °F 67% 30.01 in 10.0 mi Variable 5.8 mph - N/A   Partly Cloudy
1:53 PM 88.0 °F 93.8 °F 71.1 °F 57% 29.96 in 10.0 mi Variable 5.8 mph - N/A   Unknown
2:53 PM 81.0 °F 84.4 °F 70.0 °F 69% 29.96 in 10.0 mi Variable 6.9 mph 17.3 mph N/A   Mostly Cloudy
3:11 PM 73.0 °F - 71.1 °F 93% 30.00 in 0.8 mi North 6.9 mph - 0.25 in Rain , Thunderstorm Heavy Thunderstorms and Rain
3:22 PM 73.0 °F - 71.1 °F 93% 30.00 in 2.0 mi ENE 4.6 mph - 0.31 in Rain , Thunderstorm Light Thunderstorms and Rain
3:26 PM 73.9 °F - 72.0 °F 93% 30.00 in 6.0 mi ENE 6.9 mph - 0.31 in Rain , Thunderstorm Light Rain
3:53 PM 75.0 °F - 72.0 °F 90% 29.96 in 10.0 mi Variable 5.8 mph - 0.32 in Thunderstorm Overcast
4:12 PM 77.0 °F - 73.0 °F 88% 29.98 in 10.0 mi ENE 3.5 mph - N/A   Mostly Cloudy
4:53 PM 78.1 °F - 72.0 °F 81% 29.95 in 10.0 mi SSW 6.9 mph - N/A   Clear
5:53 PM 81.0 °F 85.8 °F 73.0 °F 77% 29.94 in 10.0 mi South 4.6 mph - N/A   Clear
7:53 PM 75.9 °F - 73.9 °F 94% 29.91 in 10.0 mi Calm Calm - N/A   Clear
8:53 PM 75.0 °F - 73.0 °F 94% 29.91 in 10.0 mi Calm Calm - N/A   Clear
10:53 PM 73.0 °F - 72.0 °F 96% 29.90 in 10.0 mi Calm Calm - N/A   Clear